Weather History for Haleyville, AL

Change the Weather History Date:

Tuesday, March 4, 2014

  Actual Average (KJFX) Record (KJFX)
Temperature  
Mean Temperature 29 °F -  
Max Temperature 37 °F 61 °F 81 °F (1983)
Min Temperature 21 °F 38 °F 12 °F (1980)
Degree Days  
Heating Degree Days 36    
Moisture  
Dew Point 26 °F    
Average Humidity 88    
Maximum Humidity 100    
Minimum Humidity 73    
Precipitation  
Precipitation 0.00 in - - ()
Sea Level Pressure  
Sea Level Pressure 30.21 in    
Wind  
Wind Speed 4 mph (NE)    
Max Wind Speed 10 mph    
Max Gust Speed -    
Visibility 7 miles    
Events      
Averages and records for this station are not official NWS values.
T = Trace of Precipitation, MM = Missing Value Source: NWS Daily Summary

Daily Weather History Graph

Daily Weather History Graph

Search for Another Location

Airport:

Trip Planner

Search our weather history database for the weather conditions in past years. The results will help you decide how hot, cold, wet, or windy it might be!

Date:

Astronomy

Mar. 04, 2014 Rise Set
Actual Time 6:15 AM CST 5:49 PM CST
Civil Twilight 5:50 AM CST 6:14 PM CST
Nautical Twilight 5:21 AM CST 6:43 PM CST
Astronomical Twilight 4:52 AM CST 7:12 PM CST
Moon 8:12 AM CST (3/4) 9:43 PM CST (3/4)
Length of Visible Light 12h 23m
Length of Day
11h 33m
Waxing Crescent, 15% of the Moon is Illuminated
Mar 4
Waxing Crescent
Mar 8
First Quarter
Mar 16
Full
Mar 23
Last Quarter
Mar 30
New

Hourly Weather History & Observations

Time (CST) Temp. Windchill Dew Point Humidity Pressure Visibility Wind Dir Wind Speed Gust Speed Precip Events Conditions
12:56 AM 21.0 °F 9.9 °F 19.0 °F 92% 30.26 in 10.0 mi NNE 10.4 mph - N/A   Overcast
1:56 AM 21.0 °F 11.4 °F 19.0 °F 92% 30.25 in 9.0 mi NE 8.1 mph - N/A   Overcast
2:56 AM 21.0 °F 12.4 °F 19.0 °F 92% 30.25 in 9.0 mi North 6.9 mph - N/A   Overcast
3:56 AM 21.0 °F 14.6 °F 19.0 °F 92% 30.25 in 7.0 mi NNE 4.6 mph - N/A   Overcast
4:19 AM 21.2 °F 14.9 °F 19.4 °F 93% 30.21 in 7.0 mi Variable 4.6 mph - N/A   Overcast
4:56 AM 21.0 °F 16.2 °F 20.1 °F 96% 30.24 in 4.0 mi NE 3.5 mph - N/A   Overcast
5:56 AM 22.1 °F - 20.1 °F 92% 30.25 in 4.0 mi Calm Calm - N/A   Overcast
6:56 AM 22.1 °F 13.7 °F 21.0 °F 96% 30.23 in 3.0 mi NE 6.9 mph - N/A   Overcast
7:49 AM 24.8 °F - 21.2 °F 86% 30.21 in 8.0 mi Calm Calm - N/A   Overcast
7:56 AM 24.1 °F - 22.1 °F 92% 30.24 in 8.0 mi Calm Calm - N/A   Overcast
8:56 AM 27.1 °F - 23.0 °F 84% 30.25 in 9.0 mi Calm Calm - N/A   Overcast
9:56 AM 29.1 °F - 25.2 °F 85% 30.27 in 10.0 mi Calm Calm - N/A   Overcast
10:56 AM 32.0 °F - 27.1 °F 82% 30.25 in 10.0 mi Calm Calm - N/A   Overcast
11:56 AM 34.9 °F - 28.0 °F 76% 30.22 in 10.0 mi Calm Calm - N/A   Overcast
12:56 PM 36.9 °F 33.1 °F 29.1 °F 74% 30.21 in 10.0 mi ENE 4.6 mph - N/A   Overcast
1:56 PM 36.9 °F - 30.0 °F 76% 30.19 in 10.0 mi Calm Calm - N/A   Overcast
2:56 PM 37.9 °F - 30.0 °F 73% 30.19 in 10.0 mi Calm Calm - N/A   Overcast
3:56 PM 37.9 °F - 30.0 °F 73% 30.19 in 10.0 mi Calm Calm - N/A   Overcast
4:56 PM 37.9 °F - 30.0 °F 73% 30.19 in 10.0 mi Calm Calm - N/A   Overcast
5:56 PM 36.9 °F - 31.1 °F 80% 30.18 in 10.0 mi Calm Calm - N/A   Overcast
6:56 PM 36.0 °F - 31.1 °F 82% 30.18 in 10.0 mi Calm Calm - N/A   Overcast
7:27 PM 35.6 °F - 30.2 °F 81% 30.15 in 10.0 mi Calm Calm - N/A   Scattered Clouds
7:56 PM 34.0 °F - 31.1 °F 89% 30.18 in 10.0 mi Calm Calm - N/A   Mostly Cloudy
8:18 PM 33.8 °F - 30.2 °F 87% 30.14 in 10.0 mi Calm Calm - N/A   Scattered Clouds
8:56 PM 32.0 °F - 30.0 °F 92% 30.18 in 6.0 mi Calm Calm - N/A   Clear
9:56 PM 29.1 °F - 29.1 °F 100% 30.19 in 3.0 mi Calm Calm - N/A   Clear
10:09 PM 28.4 °F - 28.4 °F 100% 30.16 in 1.8 mi Calm Calm - N/A   Clear
10:23 PM 28.4 °F - 28.4 °F 100% 30.16 in 2.5 mi Calm Calm - N/A   Clear
10:34 PM 28.4 °F - 28.4 °F 100% 30.16 in 1.5 mi Calm Calm - N/A   Clear
10:56 PM 28.0 °F - 28.0 °F 100% 30.20 in 2.0 mi Calm Calm - N/A   Clear
11:12 PM 28.4 °F - 28.4 °F 100% 30.17 in 3.0 mi Calm Calm - N/A   Clear
11:56 PM 28.0 °F - 28.0 °F 100% 30.19 in 2.0 mi Calm Calm - N/A   Clear